Volver al catálogo

STARLINK-2512

ActivoComunicacionesVLEO
NORAD 48319·PAYLOAD·🇺🇸 United States

Lanzado Apr 29, 2021 desde Cape Canaveral Space Force Station

Loading…

Próximos Pases (próximas 24 horas)

TLE

ActualizadoSource: CelesTrak SupGP

Época: Sep 15, 2026, 01:38 UTC

1 48319C 21036AV  26258.06854167  .00042017  00000+0  13507-2 0  2586
2 48319  53.1581 299.8089 0001100  99.0835 302.6526 15.31692063    12

Sigue STARLINK-2512 en tiempo real con AllMySat

Download on the App Store